weather.gov     
National Weather Service

Regional Weather Roundup
NWS Homepage
This page is being discontinued on March 12, 2014.
The same data is available at this site. Please update your bookmarks.
Thank you, and we apologize for the inconvenience.
Please send an email to SR-SRH.Webmaster@noaa.gov with any concerns.


Current Version
Previous Version:    01  02  03  04  05  06  07  08  09  10  11  12  13  14  15  16  17  18  19  20  21  22  23  24  25  26  27  28  29  30  
   31  32  33  34  35  36  37  38  39  40  41  42  43  44  45  46  47  48  49  50  
[Printable]
342
ASUS44 KFWD 220415
RWRTX
NORTH TEXAS HOURLY WEATHER ROUNDUP
NATIONAL WEATHER SERVICE FORT WORTH TX
1100 PM CDT SUN SEP 21 2014

NOTE: "FAIR" INDICATES FEW OR NO CLOUDS BELOW 12,000 FEET WITH NO
SIGNIFICANT WEATHER AND/OR OBSTRUCTIONS TO VISIBILITY.

TXZ118-119-220500-
DALLAS/FORT WORTH METROPLEX

CITY           SKY/WX    TMP DP  RH WIND       PRES   REMARKS
DFW AIRPORT    MOCLDY    82  65  56 N10       30.09R
DALLAS LOVE    MOCLDY    82  65  56 NE5       30.08R
FTW MEACHAM    PTCLDY    82  64  54 NE7       30.09R
DAL-EXECUTIVE  PTCLDY    85  63  47 NE6       30.08S
FTW-ALLIANCE   MOCLDY    80  66  62 NE10      30.09R
FTW-NAS-JRB    MOCLDY    86  64  47 NE3       30.13R
FTW-SPINKS     MOCLDY    76  63  64 CALM      30.11R
ARLINGTON      MOCLDY    77  64  64 CALM      30.09R
GRAND PRAIRIE  PTCLDY    83  61  48 CALM      30.10R
ADDISON        PTCLDY    83  65  53 NE8       30.11R
MESQUITE       PTCLDY    78  63  58 CALM      30.08S
LANCASTER      PTCLDY    77  63  61 CALM      30.09R
$$

TXZ091>094-102>105-117-120-121-131>134-220500-
NORTH CENTRAL TEXAS

CITY           SKY/WX    TMP DP  RH WIND       PRES   REMARKS
SHRMAN/DENISON MOCLDY    74  68  79 NE10      30.14R
GAINESVILLE    MOCLDY    75  67  76 N9        30.15S
BOWIE          PTCLDY    76  69  80 N8        30.15R
BRIDGEPORT     PTCLDY    76  63  62 NE6       30.14R
DECATUR        CLEAR     75  64  67 NE8       30.14R
DENTON         PTCLDY    78  68  71 NE8       30.11R
MCKINNEY       PTCLDY    79  68  69 NE9       30.10R
GREENVILLE     CLOUDY    81  68  65 N8        30.11R
ROCKWALL       PTCLDY    80  66  62 NE9       30.09R
TERRELL        PTCLDY    79  65  62 NE3       30.09R
WAXAHACHIE     MOCLDY    79  59  50 NE3       30.10S
CLEBURNE       MOCLDY    81  63  54 CALM      30.11S
GRANBURY       MOCLDY    76  65  68 CALM      30.11R
$$

TXZ083>090-098>101-113>116-127>130-139>142-154-155-220500-
WESTERN NORTH TEXAS

CITY           SKY/WX    TMP DP  RH WIND       PRES   REMARKS
WICHITA FALLS  PTCLDY    75  62  64 NE16      30.16R
WF-KICKAPOO    PTCLDY    76  64  68 NE12      30.16S
VERNON         MOCLDY    74  68  81 NE10G16   30.19R
ABILENE        PTCLDY    77  67  71 CALM      30.16R
ABILENE-DYESS  PTCLDY    74  61  64 NW1       30.15R
BRECKENRIDGE   MOCLDY    79  62  54 SE3       30.13R
GRAHAM         CLOUDY    80  61  52 NE6       30.12R
MINERAL WELLS  MOCLDY    77  59  53 SE6       30.10R
STEPHENVILLE   MOCLDY    76  61  58 CALM      30.15R
COMANCHE       PTCLDY    77  62  60 CALM      30.14R
BROWNWOOD      PTCLDY    75  68  78 CALM      30.14R
COLEMAN        MOCLDY    77  65  68 CALM      30.15R
BRADY          CLEAR     73  64  73 E5        30.15R
$$

TXZ143>147-156>162-174-175-220500-
CENTRAL TEXAS

CITY           SKY/WX    TMP DP  RH WIND       PRES   REMARKS
WACO           MOCLDY    74  66  76 CALM      30.08R
WACO-MCGREGOR  MOCLDY    75  59  57 CALM      30.09R
HILLSBORO      CLOUDY    78  60  52 SE3       30.09S
CORSICANA      MOCLDY    79  64  60 S3        30.08R
MEXIA          MOCLDY    74  67  78 CALM      30.07R
HEARNE         MOCLDY    74  70  88 CALM      30.06S
CAMERON        PTCLDY    76  68  78 CALM      30.06S
TEMPLE         PTCLDY    77  63  61 CALM      30.07S
KILLEEN        CLEAR     79  64  61 SE3       30.09S
KILLEEN-SKYLRK CLEAR     73  63  68 CALM      30.09R
FORT HOOD      CLEAR     77  66  68 CALM      30.09R
GATESVILLE     FAIR      73  66  78 CALM      30.12R
HAMILTON       MOCLDY    77  62  59 CALM      30.13R
LAMPASAS       CLEAR     73  67  83 CALM      30.11R
$$

TXZ095>097-106>112-122>126-135>138-148>153-164>167-220500-
EAST TEXAS

CITY           SKY/WX    TMP DP  RH WIND       PRES   REMARKS
PARIS          PTCLDY    75  64  69 N7        30.12R
SULPHUR SPRNGS CLOUDY    80  70  71 NE10      30.12R
MOUNT PLEASANT MOCLDY    78  70  76 N5        30.10R
GILMER         MOCLDY    75  72  88 CALM      30.09S
MINEOLA        CLOUDY    75  70  83 CALM      30.08S
TYLER          PTCLDY    79  69  71 CALM      30.07S
LONGVIEW       PTCLDY    77  68  73 CALM      30.06R
MARSHALL       PTCLDY    78  71  77 CALM      30.08S
ATHENS         PTCLDY    72  66  83 CALM      30.06F
PALESTINE      PTCLDY    73  70  91 CALM      30.07S
JACKSONVILLE   CLEAR     82  65  55 CALM      30.09S
HENDERSON      CLEAR     73  70  91 CALM      30.07S
NACOGDOCHES    PTCLDY    73  70  88 CALM      30.06S
LUFKIN         CLEAR     76  71  85 CALM      30.05R
$$

SUPPLEMENTAL OBSERVATIONS (CENTRAL)

CITY           SKY/WX    TMP DP  RH WIND       PRES   REMARKS
LAKE TEXOMA      N/A     73  68  83 NE7         N/A
CADDO GRASSLND   N/A     75  70  83 N3          N/A
PAT MAYSE LAKE   N/A     73  70  88 NW3         N/A
ATHENS           N/A     73  66  78 CALM        N/A
LAKE LIMESTONE   N/A     73  68  83 W1          N/A
MCGREGOR         N/A     75  64  69 W1          N/A
$$

SUPPLEMENTAL OBSERVATIONS (WEST)

CITY           SKY/WX    TMP DP  RH WIND       PRES   REMARKS
MILLERS CREEK    N/A     79  63  57 E10         N/A
LBJ GRASSLAND    N/A     75  63  64 N6          N/A
GRANBURY         N/A     75  63  64 W1          N/A
COMANCHE         N/A    N/A N/A N/A S2          N/A
HAMBY            N/A     73  64  73 SE3         N/A
IVIE RESERVOIR   N/A     75  66  73 E2          N/A
COLORADO BEND    N/A    N/A N/A N/A SE2         N/A
$$

SUPPLEMENTAL OBSERVATIONS (EAST)

CITY           SKY/WX    TMP DP  RH WIND       PRES   REMARKS
CLARKSVILLE      N/A     75  68  78 N6          N/A
TEXARKANA        N/A     79  72  78 NE1         N/A
GILMER           N/A     75  70  83 CALM        N/A
HENDERSON        N/A     73  68  83 CALM        N/A
LUFKIN           N/A     73  68  83 MISG        N/A
N SABINE NF      N/A     73  70  88 MISG        N/A
$$

SUPPLEMENTAL OBSERVATIONS ARE A COLLECTION OF AUTOMATED INSTRUMENTS
THAT ARE MAINTAINED BY A VARIETY OF FEDERAL AND STATE AGENCIES.
CERTAIN ELEMENTS...SUCH AS HUMIDITY VALUES AND SUSTAINED WIND
SPEEDS...MAY BE APPROXIMATED.





U.S. Dept. of Commerce
NOAA National Weather Service
1325 East West Highway
Silver Spring, MD 20910
E-mail: w-nws.webmaster@noaa.gov
Page last modified: May 16, 2007
NATIONAL WEATHER SERVICE: for Safety, for Work, for Fun - FOR LIFE